GFSGL_con_sbcape_078.txt.gz
CAPE
1850 2681 3296 3098 2963 2551 2174 1650 1429 1375 1076 647 690 714 941 847 887 705 827 782 575 709 678 630 739 950 950 1155 1217 955 613 110 0 7 3 1 1 2 1 0 1 3 4
3104 3222 3024 2864 2398 2492 2020 1864 1695 1372 1274 1235 822 809 428 541 458 272 473 825 713 796 456 686 809 1002 722 1104 731 685 388 7 1 1 2 1 1 3 5 2 0 3 0
3083 2978 2881 1997 2402 2425 1971 1893 1839 1504 1280 845 681 567 83 43 262 463 836 727 659 519 256 344 385 743 1144 1277 660 537 115 7 0 1 2 2 1 0 0 2 3 2 0
2973 2393 2672 2188 2333 2159 2251 2030 1666 1388 1186 861 829 572 405 318 511 602 799 705 558 418 357 366 296 378 540 1057 781 617 191 10 1 3 1 2 2 1 0 0 4 2 0
2705 2372 2527 2286 2321 2303 2027 1877 1656 1200 1139 1164 866 717 549 280 44 223 159 267 376 417 266 140 0 0 0 0 580 531 174 3 2 3 3 3 2 1 1 1 0 0 0
2753 2410 2304 2303 2270 2147 1989 1751 1787 1650 1632 1358 987 809 556 101 0 0 0 505 167 251 322 403 1 0 0 0 0 0 0 325 3 0 2 1 1 1 0 0 0 0 0
2937 2591 2347 2380 2049 2137 1849 1679 1576 1678 1471 1276 1156 1213 781 0 0 0 0 255 672 546 341 398 274 0 13 0 0 0 0 0 2 9 0 0 1 0 0 0 0 0 0
3121 2598 2208 2286 2190 2214 1917 1865 1912 1822 1698 1613 1497 1323 1223 141 0 0 0 56 630 535 416 296 174 578 21 214 162 115 4 9 7 8 44 0 0 0 0 0 0 0 0
3787 2822 2538 2297 2296 2183 1897 1949 1911 1840 1914 1618 1444 1502 1384 220 0 0 0 57 450 348 189 314 118 224 0 0 138 295 96 0 0 0 0 1 0 0 0 0 0 0 0
3674 3377 3115 2623 2553 2312 2090 2214 2260 2062 1770 1292 1312 1427 1125 1589 0 0 0 4 694 306 426 395 0 4 0 0 50 414 271 154 1 0 0 0 0 0 0 0 0 0 0
2106 3180 3337 3102 2907 2789 2551 2435 2395 2177 1707 1739 1676 1753 1641 1375 18 0 0 0 120 402 506 435 92 0 0 0 0 49 20 6 3 39 4 13 9 1 0 0 0 0 0
152 2546 2891 3078 2714 2639 2872 2694 2622 2456 2153 2261 2200 1960 1705 2133 937 0 0 0 0 286 685 497 57 0 0 0 0 0 0 0 1 19 16 10 10 11 0 0 0 0 0
0 27 1549 2557 2758 2663 2815 2895 2651 2530 2120 1785 1782 1684 1693 1715 1659 19 0 0 0 0 34 41 0 0 0 0 0 0 0 0 0 0 28 22 14 24 16 6 3 0 12
672 583 1128 2092 2386 2759 2726 2549 2240 2306 1796 1697 1033 1007 867 967 1081 283 1 2 1 0 0 0 0 0 0 0 0 0 0 0 0 0 0 0 0 37 28 34 33 46 24
1553 2108 2247 2305 2295 2684 2415 1230 1844 1755 1012 844 544 433 578 698 150 1 23 174 128 16 46 322 45 48 53 0 0 0 0 0 0 0 0 0 0 0 7 6 5 7 0
1723 1728 2144 2113 2031 2009 1609 1 1 1 1 2 2 289 2 1 0 0 0 2 1 0 0 47 97 43 1 0 0 0 0 0 2 0 0 0 0 0 0 1 0 0 0
19 86 1119 1261 1927 1770 632 144 13 4 2 2 1 0 0 2 2 0 0 2 1 0 10 2 6 6 1 0 0 0 0 1 0 0 0 0 0 0 0 0 0 0 0
0 0 4 2 2 250 790 727 417 6 4 1 0 0 2 2 1 1 1 1 0 0 15 90 8 5 5 9 7 5 3 2 0 0 0 0 0 0 0 0 0 0 0
0 0 0 0 0 0 0 0 31 3 20 13 0 0 1 1 1 1 1 0 162 126 180 147 79 19 8 5 7 1 0 0 0 2 1 0 1 0 0 0 0 0 0
0 0 0 0 0 0 0 1 6 48 13 18 24 0 0 0 0 0 0 1 233 194 193 38 3 3 10 3 4 2 2 2 2 2 4 3 0 0 1 0 0 0 0
0 18 0 0 0 0 0 3 30 25 11 37 61 44 2 74 155 147 2 177 75 66 99 176 40 8 2 0 0 0 1 1 0 3 2 2 0 1 3 4 2 2 0
135 20 19 52 13 29 7 0 0 16 86 82 15 22 10 24 88 86 32 7 2 5 7 0 0 0 0 1 0 0 1 1 5 5 12 0 0 0 0 2 3 4 4
0 11 74 48 48 65 155 82 154 119 79 83 65 44 7 0 0 0 0 0 0 0 0 0 0 0 0 0 0 0 0 0 0 0 0 0 15 36 31 20 19 7 3
0 0 0 1 59 82 146 129 52 45 174 25 9 0 0 1 0 0 0 0 0 0 1 0 0 0 0 0 0 0 0 0 0 0 0 0 19 20 24 50 45 24 16
13 46 70 144 117 404 221 232 169 68 5 0 0 0 0 0 0 0 0 0 2 8 33 9 0 0 0 0 0 0 0 1 0 0 0 0 0 22 19 14 22 19 26
69 214 243 227 225 163 114 39 11 0 0 0 0 0 0 0 0 4 10 7 21 30 28 0 0 0 0 0 0 0 0 0 0 0 0 0 0 3 0 5 22 13 8

GFSGL_con_sbcape_084.txt.gz
CAPE
1490 1603 1783 1507 1393 1551 1185 681 409 232 24 0 0 11 66 53 22 67 88 77 72 27 50 47 88 90 94 56 95 68 77 0 0 1 3 1 1 1 1 0 0 0 0
1370 1595 1806 1940 1611 1097 1119 637 412 218 33 0 0 0 0 8 1 1 27 85 23 14 55 67 118 252 150 141 117 125 75 0 0 1 3 1 1 2 0 0 0 0 0
747 1702 1944 1947 1365 1116 927 820 643 355 183 59 17 4 0 0 0 0 3 6 32 9 2 1 17 123 156 40 9 3 1 0 0 0 1 1 1 1 1 0 0 0 0
1939 1941 1999 1604 1468 1179 1125 1023 748 564 409 296 86 0 0 0 0 62 28 0 0 0 0 0 2 21 77 15 0 0 0 0 2 0 3 0 0 0 1 1 1 0 2
2075 1953 1782 1431 1292 1107 1129 1029 904 594 490 49 6 0 0 0 0 20 42 0 0 0 0 0 0 0 0 4 0 0 0 0 1 1 1 0 0 0 1 0 1 0 0
1918 1937 1671 1505 1236 1272 1120 1059 756 551 362 80 57 1 0 0 0 0 21 11 0 0 0 0 0 0 0 0 0 0 0 0 0 0 1 0 0 0 0 0 0 0 0
2172 1934 1778 1424 1313 1169 1052 936 733 463 235 197 131 46 0 0 0 0 0 0 0 0 0 0 0 0 0 0 0 0 0 0 0 0 0 0 0 0 0 0 0 0 0
1736 978 1056 1061 574 315 225 137 202 311 288 175 128 91 88 0 0 0 0 0 0 0 0 0 0 0 0 0 0 0 0 0 0 0 0 0 0 0 0 0 0 0 0
137 3 0 0 0 0 11 0 0 200 297 207 166 120 79 0 0 0 0 0 0 0 0 0 0 0 0 0 0 0 0 0 0 0 0 0 0 0 0 0 0 0 0
4 0 0 0 10 10 44 7 19 0 191 317 240 220 138 32 0 0 0 0 0 0 0 0 0 0 0 0 0 0 0 0 0 0 0 0 0 0 0 0 0 0 0
0 0 0 0 0 0 0 0 0 0 10 94 326 316 192 111 0 0 0 0 0 0 0 0 0 0 0 0 0 0 0 0 0 0 0 0 0 0 0 0 0 0 0
0 0 0 0 0 0 0 0 4 0 3 157 412 411 213 163 18 0 0 0 0 0 0 0 0 0 0 0 0 0 0 0 0 0 0 0 1 1 0 0 0 0 0
0 0 0 0 0 0 0 0 0 0 0 14 225 474 356 203 101 0 1 2 3 0 0 0 1 1 0 0 0 0 0 0 0 0 0 0 0 0 0 0 0 0 0
190 153 23 1 0 0 17 206 46 105 98 131 499 575 300 77 9 1 2 0 1 0 0 0 0 0 1 0 0 0 0 0 0 0 0 0 0 0 0 0 0 0 0
0 0 1 2 81 125 136 1 0 8 6 371 516 424 22 95 57 0 0 0 0 0 0 0 0 0 0 0 0 0 0 0 0 0 0 0 0 0 0 1 0 0 0
0 0 0 1 1 2 1 0 1 1 1 1 2 78 1 36 3 2 9 2 1 1 1 0 0 0 0 0 0 0 0 0 0 0 0 0 0 0 0 0 1 0 2
0 0 0 0 0 1 1 1 1 1 1 1 1 9 7 0 1 1 1 2 2 1 0 1 5 1 5 21 0 0 0 0 0 0 0 0 0 0 0 0 0 0 0
0 0 0 0 0 0 1 1 1 1 1 1 0 0 1 1 0 1 1 0 0 0 0 0 0 0 0 0 2 0 0 0 0 0 0 0 0 0 0 0 0 0 0
0 0 0 0 0 0 0 0 1 2 1 2 0 0 0 1 1 1 1 0 0 0 0 4 6 2 0 4 1 0 0 0 0 0 0 0 0 0 0 0 0 0 0
2 4 0 0 0 0 0 0 0 2 7 0 0 1 0 0 0 0 0 0 0 0 13 16 0 0 0 0 0 0 0 0 0 0 0 0 0 0 0 0 0 0 0
0 0 0 2 1 0 0 0 0 0 0 10 0 1 0 0 0 0 0 0 2 20 0 0 0 0 0 0 0 0 0 0 0 0 0 0 0 0 0 0 0 0 0
0 0 0 0 1 5 1 0 1 0 0 4 0 0 0 0 3 0 1 0 0 0 0 0 0 0 0 0 0 0 0 0 0 0 0 0 0 0 0 0 0 1 1
0 0 0 0 0 0 0 9 0 1 1 2 9 0 0 0 0 0 0 0 0 0 0 0 0 0 0 0 0 0 0 0 0 0 0 0 0 0 0 0 0 0 0
0 0 0 0 0 0 0 1 1 4 3 0 0 0 0 0 0 0 0 0 0 0 0 0 0 0 0 0 0 0 0 0 0 0 0 0 0 0 0 0 0 0 0
0 0 0 0 0 0 0 0 0 0 0 0 0 0 0 0 0 0 0 0 0 0 0 0 0 0 0 0 0 0 0 0 0 0 0 0 0 0 0 0 0 0 0
0 0 0 0 0 0 0 0 0 0 0 0 0 0 0 0 0 0 0 0 0 0 0 0 0 0 0 0 0 0 0 0 0 0 0 0 0 0 0 0 0 0 0

GFSGL_con_sbcape_087.txt.gz
CAPE
918 1106 299 181 207 494 975 935 594 293 141 56 34 9 0 1 3 17 33 26 38 36 59 26 8 0 40 20 33 87 75 0 0 1 1 1 1 1 1 0 0 0 0
1164 1330 1211 1229 1252 1387 1156 724 351 268 42 0 0 0 0 0 0 6 37 61 50 19 14 0 0 41 0 0 0 23 61 0 0 0 1 3 1 1 0 0 0 0 0
1218 1126 1119 1491 1309 1036 1002 551 434 211 80 0 0 0 0 0 0 0 0 13 7 7 11 19 26 27 36 0 1 1 1 0 0 0 1 1 1 1 1 1 0 0 1
612 1199 1583 1493 1111 820 813 638 535 323 233 96 57 2 0 0 0 0 0 0 0 0 0 0 0 18 19 2 1 1 0 1 3 1 3 0 0 1 0 0 1 0 1
1045 1476 1604 1310 1138 875 904 836 681 537 370 270 159 0 0 0 0 5 0 0 0 0 0 0 0 0 0 0 0 1 0 0 1 2 2 2 1 1 1 1 1 0 0
1552 1481 1500 1307 1043 1008 985 971 857 571 438 185 11 0 0 0 0 0 0 0 0 0 0 0 0 0 0 0 0 0 0 0 0 0 0 0 0 0 0 1 0 0 0
1507 1557 1528 1464 1136 1115 957 976 849 634 297 140 23 7 0 0 0 0 0 0 0 0 0 0 0 0 0 0 0 0 0 0 0 0 0 0 0 0 0 1 0 0 0
1690 1748 1604 1323 1121 805 615 643 360 344 246 135 78 16 5 1 0 0 0 0 0 0 0 0 0 0 0 0 0 0 0 0 0 0 0 0 0 0 0 0 0 0 0
1310 1015 790 559 369 222 200 58 44 151 244 199 121 62 6 0 0 0 0 0 0 0 0 0 0 0 0 0 0 0 0 0 0 0 0 0 0 0 0 0 0 0 0
320 157 67 87 85 82 76 91 84 0 0 63 199 94 58 39 0 0 0 0 0 0 0 0 0 0 0 0 0 0 0 0 0 0 0 0 0 0 0 0 0 0 0
0 0 0 0 0 8 1 0 0 0 0 0 0 36 72 30 3 0 0 0 0 0 0 0 0 0 0 0 0 0 0 0 0 0 0 0 0 0 0 0 0 0 0
0 0 0 0 0 0 0 0 0 0 0 0 0 0 12 82 9 0 0 0 0 0 0 0 0 0 0 0 0 0 0 0 0 0 0 0 1 0 0 0 0 0 0
4 1 0 0 0 0 0 0 1 0 0 1 3 22 98 167 2 0 0 1 0 0 0 0 0 1 0 0 0 0 0 0 0 0 0 0 0 0 0 0 0 0 0
0 0 0 1 4 0 1 1 2 0 0 0 0 64 234 146 27 3 4 1 1 0 0 0 0 0 1 0 0 0 0 0 0 0 0 0 0 0 0 0 1 0 0
0 0 0 0 1 1 2 1 1 2 17 9 6 40 84 195 141 0 0 4 1 0 1 1 0 0 0 1 0 0 0 0 0 0 0 0 0 0 0 0 1 0 0
0 0 0 0 0 0 1 1 1 0 1 0 2 74 1 36 5 1 1 1 1 1 0 0 0 0 0 0 0 0 0 0 0 0 0 0 0 0 0 0 0 4 1
0 0 0 0 0 0 1 2 1 0 1 1 1 0 2 0 2 4 2 2 1 1 0 1 0 0 0 0 0 0 0 0 0 0 0 0 0 0 0 0 0 0 0
0 0 0 0 0 0 1 1 4 1 0 0 0 3 1 2 1 2 1 1 1 1 3 1 1 1 1 1 1 1 1 1 1 0 0 0 0 0 0 0 0 1 0
0 0 0 0 0 0 0 0 2 4 3 2 1 0 1 1 1 1 0 1 2 0 0 0 0 0 1 2 0 0 0 0 0 0 0 0 0 0 0 0 0 0 0
0 0 0 0 0 0 0 0 1 0 0 1 2 0 0 0 0 0 0 0 0 0 1 1 1 1 0 0 0 0 0 0 0 0 0 0 0 0 0 0 0 0 0
0 0 0 0 0 1 3 0 0 0 0 0 0 1 0 0 0 0 0 1 0 2 1 0 1 0 0 0 0 0 0 0 0 0 0 0 0 0 0 0 0 0 0
0 0 0 0 0 0 0 3 0 0 1 1 0 0 0 1 1 2 1 1 1 0 0 0 0 0 0 0 0 0 0 0 0 0 0 0 0 0 0 0 0 0 0
0 0 0 0 0 0 0 0 0 0 0 5 1 0 0 0 1 3 2 1 1 1 0 0 0 0 0 0 0 0 0 0 0 0 0 0 0 0 0 0 0 0 0
0 0 0 0 0 0 0 1 0 9 9 0 0 0 0 0 0 0 0 0 0 0 0 0 0 0 0 0 0 0 0 0 0 0 0 0 0 0 0 0 0 0 0
0 0 0 0 0 0 0 0 0 0 0 0 0 0 0 0 0 0 0 0 0 0 0 0 0 0 0 0 0 0 0 0 0 0 0 0 0 0 0 0 0 0 0
0 0 0 0 0 0 0 0 0 0 0 0 0 0 0 0 0 0 0 0 0 0 0 0 0 0 0 0 0 0 0 0 0 0 0 0 0 0 0 0 0 0 0

GFSGL_con_sbcape_093.txt.gz
CAPE
2835 2880 2852 2575 1773 1024 745 888 1378 2161 1816 1629 1515 1351 1088 1011 1126 1191 959 685 634 379 113 183 577 1146 834 921 1009 860 590 868 682 590 132 37 7 6 7 8 7 7 6
2949 3026 2565 1870 1102 782 428 411 2120 2110 1656 1565 1371 1198 1028 968 942 848 598 388 567 566 703 870 910 909 1077 1041 951 870 724 364 342 562 6 10 9 5 3 3 8 2 5
2926 2616 1583 1203 1095 968 867 1374 2252 1924 1581 1246 1160 1119 996 759 641 700 765 731 725 706 723 812 707 664 839 707 832 723 491 661 360 242 8 11 6 3 4 6 6 9 5
2361 1692 1476 1441 1245 1668 2229 2629 2302 1874 1542 1224 1070 1048 952 854 889 850 744 734 814 768 765 685 584 728 811 838 655 568 370 151 9 8 5 6 6 9 5 3 5 9 14
1182 1645 2016 2077 2063 2552 2630 2634 2160 1781 1502 1268 1016 843 735 644 664 804 631 521 551 528 567 592 598 456 219 345 470 417 186 16 8 7 8 9 8 7 5 6 6 7 5
1995 2288 2204 2249 2374 2629 2654 2453 2153 1848 1639 1406 1175 815 705 415 82 60 371 605 571 541 583 501 348 0 0 0 0 26 138 69 21 7 8 8 8 10 9 6 6 4 4
2011 2290 2472 2171 2149 2764 2478 2291 2257 2014 1884 1696 1431 1078 990 792 0 0 8 487 549 532 572 449 280 0 0 70 30 0 0 0 3 28 3 4 7 7 5 6 3 1 0
397 2196 2155 2117 2465 2607 2572 2514 2505 2335 2143 1870 1577 1426 1324 1129 12 0 0 237 572 574 455 400 331 51 0 47 254 25 98 9 3 0 41 32 3 2 1 1 0 0 0
0 1488 1512 1837 2130 2325 2420 2415 2396 2196 1893 1763 1676 1620 1452 1306 17 0 0 95 389 596 544 473 387 254 0 0 178 112 10 34 0 0 0 0 0 0 3 3 3 2 7
99 79 111 222 366 672 500 348 398 780 779 471 546 899 1145 1267 534 0 0 56 134 202 427 323 11 110 0 0 197 140 65 61 36 5 1 0 0 0 0 6 4 6 8
9 0 6 12 15 27 54 129 144 78 44 97 161 77 81 91 298 42 0 116 174 155 107 208 151 0 0 0 0 215 95 128 16 102 49 38 14 15 9 22 21 10 3
2 10 55 91 120 229 321 305 174 135 204 242 108 71 131 443 96 0 0 0 64 582 470 270 236 1 0 0 0 8 0 0 84 102 96 31 16 19 20 18 24 25 22
0 0 0 0 3 20 38 79 64 17 6 9 19 24 1 3 242 0 0 0 1 140 780 452 212 0 0 0 0 0 0 70 99 133 75 63 14 1 22 19 19 19 27
0 0 0 0 0 3 4 9 12 76 57 53 36 14 16 10 139 206 49 2 0 0 0 1 2 0 0 3 0 0 32 186 81 113 164 133 41 25 25 36 35 15 26
0 0 0 0 1 2 6 10 5 5 3 7 7 9 10 13 123 14 1 2 1 3 5 4 13 37 9 9 26 13 14 4 27 133 276 208 10 17 30 36 98 34 58
0 0 0 0 1 1 8 17 0 0 0 0 0 1 3 1 1 1 1 1 0 0 6 10 10 17 25 8 5 1 1 1 1 0 0 0 0 0 1 12 11 12 31
5 1 0 0 0 1 3 4 6 1 1 1 1 1 1 1 1 2 1 1 2 1 15 13 11 12 8 3 1 1 1 2 1 2 1 0 1 0 0 0 4 3 11
0 0 0 0 0 0 1 7 16 9 6 14 4 0 0 2 0 1 1 0 3 0 17 19 26 28 4 2 2 1 1 2 1 1 2 1 2 3 4 9 10 19 72
0 1 1 0 0 0 0 0 13 40 16 22 14 5 9 0 1 1 1 5 8 4 8 83 179 134 6 1 1 3 3 4 2 1 1 1 1 1 1 1 1 0 1
3 0 0 0 0 0 0 0 1 58 56 4 7 11 9 18 20 5 2 6 4 2 2 2 3 1 3 1 1 1 1 0 0 1 1 1 1 0 1 2 3 3 4
4 2 0 0 0 0 0 0 0 31 68 70 30 1 1 19 11 5 5 5 3 2 2 1 2 1 3 2 1 1 1 1 2 2 4 5 4 5 4 4 8 9 8
3 3 5 9 6 4 2 0 1 54 116 78 44 4 0 8 6 5 3 2 2 2 2 3 2 1 1 0 0 0 3 1 2 4 5 4 5 8 10 11 12 12 0
4 11 19 18 13 2 8 125 156 209 237 108 26 7 4 2 4 4 2 3 2 2 1 0 0 0 0 0 0 0 0 0 0 2 5 9 6 3 5 5 5 0 0
10 6 22 29 38 37 22 3 5 17 182 244 32 7 5 6 5 2 1 2 1 1 0 0 0 0 0 0 0 0 0 0 0 0 0 0 0 0 2 5 2 1 0
11 26 19 2 0 3 6 8 17 115 126 201 21 4 3 2 3 1 2 1 2 0 0 0 0 0 0 0 0 0 0 0 0 0 0 0 0 0 0 0 0 0 0
25 44 45 33 21 16 11 12 10 9 32 152 23 5 1 0 0 0 0 0 0 0 0 0 0 0 0 0 0 0 0 0 0 0 0 0 0 0 0 0 0 0 0

GFSGL_con_sbcape_096.txt.gz
CAPE
3781 3719 3786 3653 3750 3805 3148 2078 1558 1894 2256 2479 2284 2109 1945 1918 1624 1647 1564 1127 1220 1181 960 775 635 1025 1200 1403 1819 1657 1992 1645 1164 1167 1204 441 123 24 11 16 1 9 0
3714 3880 3764 3815 3872 3414 2320 1665 1560 2139 2544 2541 2109 1901 1713 1634 1674 1599 1366 1065 1083 933 937 819 764 601 1079 1797 1311 1248 1285 1412 962 812 715 153 91 21 8 7 3 2 2
3765 3813 3736 3772 3318 2396 1596 1461 1651 2448 2638 1992 1769 1631 1512 1509 1584 1549 1312 1016 891 733 755 914 950 931 1405 1042 1081 1035 1067 1103 883 916 342 7 7 5 6 5 2 4 6
3516 3621 3585 3387 2582 1953 1735 1233 1809 2738 2465 1853 1649 1499 1463 1386 1365 1295 1256 1285 1221 1059 1036 957 951 911 903 945 943 1069 904 857 756 740 83 6 6 11 4 3 4 13 10
2275 1832 1999 2024 1830 1861 2133 2886 3057 2764 2115 1827 1575 1462 1360 1276 1176 1344 1286 1310 1281 1112 960 973 862 664 150 323 745 854 680 677 319 205 10 9 9 9 4 5 6 9 16
1914 2457 2538 2522 2372 2544 2917 3256 3024 2624 2234 2012 1610 1325 1233 1049 423 448 635 1127 949 887 849 772 665 267 137 30 0 0 192 765 529 235 15 9 9 11 11 8 7 8 8
1829 2546 2891 2699 2397 2465 2823 3043 2959 2743 2444 2178 1813 1574 1321 1276 84 45 128 894 913 889 856 754 586 279 216 266 5 0 0 0 0 333 410 279 40 11 9 16 10 7 5
1397 2472 2719 2761 2451 2736 2849 2796 3100 2908 2630 2383 2142 1936 1731 1498 98 0 0 665 844 807 739 594 685 429 231 55 128 311 207 328 147 131 365 411 295 86 13 4 6 5 0
276 530 2582 2649 2566 2949 3048 3196 3237 2962 2872 2726 2455 2119 2044 2092 377 84 0 513 520 555 556 691 686 539 179 0 174 293 141 228 1 0 0 0 0 0 8 6 3 2 7
263 523 1296 2477 2350 2596 2714 2241 2563 2586 2448 2370 2314 2189 1801 2064 1108 0 0 648 650 568 748 829 262 242 22 0 79 578 335 239 171 9 1 0 0 1 0 22 9 2 8
89 24 7 55 318 552 762 1284 1543 1700 1530 1554 1695 1681 1494 1311 1362 18 0 80 747 1257 796 571 485 69 0 0 0 444 569 218 191 319 116 25 36 28 19 28 14 8 10
4 9 16 97 62 295 682 957 732 754 759 865 1072 934 878 1052 222 214 2 0 68 753 952 839 729 1 0 0 0 14 18 27 435 156 150 92 68 41 30 31 171 81 52
7 15 13 39 55 123 164 145 230 342 312 233 231 317 463 299 371 99 57 0 0 1 178 245 53 0 0 0 0 0 0 129 103 127 232 160 116 113 258 106 43 86 91
12 19 17 13 24 13 2 4 6 12 47 119 71 32 43 84 111 261 312 144 19 0 1 3 3 0 0 24 0 0 27 237 225 241 355 380 354 88 111 80 72 54 32
0 0 2 1 3 5 13 4 6 8 1 3 2 3 3 3 6 0 0 5 100 4 4 6 1 15 9 121 175 125 117 454 736 909 1253 951 134 67 112 152 105 75 31
59 8 0 0 1 4 5 4 0 0 0 0 0 1 0 0 0 1 1 0 1 0 2 20 4 4 4 24 149 350 432 261 857 489 158 93 48 39 50 127 309 239 164
3 3 1 0 0 0 6 17 5 1 0 1 2 2 1 0 0 1 2 1 1 1 9 17 19 15 34 22 34 5 2 4 3 3 0 0 1 0 0 0 1 1 17
7 0 0 1 0 0 0 1 18 40 64 28 1 0 0 0 2 0 1 1 3 1 9 93 111 73 36 9 4 7 5 4 1 1 0 1 1 0 2 3 3 10 10
10 5 3 0 0 0 0 0 5 51 84 76 38 12 6 0 0 0 0 3 10 9 9 14 44 27 10 20 32 22 2 1 1 1 5 3 2 2 3 4 1 1 0
5 0 0 0 0 0 0 1 3 18 44 108 64 19 11 24 39 25 14 8 8 8 5 3 3 1 2 1 1 2 1 1 1 1 2 1 1 1 1 1 2 1 2
3 3 0 0 0 5 4 4 3 11 69 102 115 2 0 1 15 10 7 8 5 4 6 3 7 6 7 6 5 3 2 1 2 4 1 2 2 2 4 7 13 10 15
22 17 18 25 31 22 20 14 13 22 169 134 88 2 0 9 8 9 6 5 8 6 3 2 3 4 5 4 1 2 2 3 3 3 2 5 7 5 6 6 9 12 11
30 30 11 20 50 12 32 37 82 188 243 145 111 26 80 4 3 4 4 4 6 2 1 1 17 2 2 9 15 11 10 28 37 12 4 7 11 14 15 24 23 10 1
28 35 48 78 33 64 75 49 64 13 288 208 149 115 16 5 4 4 2 1 0 0 1 14 15 5 1 0 6 18 10 12 32 37 27 26 21 2 10 3 0 0 0
81 179 232 23 8 4 3 5 97 175 239 323 314 199 58 6 1 1 5 9 3 0 0 0 0 0 0 0 0 0 0 0 0 0 0 0 0 0 0 2 0 0 0
31 91 127 105 107 107 69 21 16 82 169 319 237 147 187 121 40 78 40 49 10 0 0 0 0 0 0 0 0 0 0 0 0 0 0 0 0 0 0 0 0 0 0

GFSGL_con_sbcape_102.txt.gz
CAPE
4215 4187 4211 3775 4332 4048 4462 3763 4163 2906 2603 2282 2106 2302 2534 2528 2501 2651 2332 1991 1795 1637 1366 981 476 570 644 553 334 386 444 492 477 418 540 509 364 312 143 157 0 0 0
4272 4069 4061 4327 4307 4026 4407 4289 3862 2723 2533 2846 3033 2863 2652 2424 2430 2307 2011 1574 1629 1522 1422 1408 950 777 614 491 531 270 479 370 333 198 320 414 664 411 348 155 16 0 6
4285 3892 3631 4352 4350 4229 4253 4212 3515 2695 2725 2594 2981 2785 2221 2261 2164 2081 2056 1822 1566 1483 1550 1394 1170 974 983 897 756 668 879 721 905 540 563 402 14 0 0 0 0 0 1
3521 3352 3491 4187 4266 4328 4267 4160 3219 2512 2636 2705 3014 2577 2354 2077 2090 1808 1894 1932 1757 1608 1650 1650 1353 1218 1265 1304 1212 1348 1307 1295 1113 965 712 197 4 2 1 1 1 1 0
2870 2684 2677 2897 3102 3653 3907 3254 2677 2483 2654 2954 2798 2466 2200 1879 1219 1828 1698 1749 1757 1574 1675 1513 1379 1187 873 805 939 931 914 868 758 748 663 205 2 1 0 1 1 0 1
113 5 1 0 0 16 1597 1919 2065 2728 3008 2994 2469 2160 2000 1206 661 806 1162 1445 1724 1815 1634 1470 1437 713 419 397 220 248 748 844 511 435 466 131 0 1 1 1 1 1 4
64 3 3 0 1 1 10 657 1774 2530 3419 2928 2618 2286 2153 1941 84 131 148 1204 1591 1596 1781 1775 1273 525 707 516 108 75 0 0 49 670 690 434 198 0 1 1 2 0 0
323 71 6 1 10 27 3 0 1150 1708 2648 2770 2658 2542 2514 2105 99 45 39 959 1016 1220 1426 1767 1377 991 1408 1249 802 363 201 79 0 0 328 636 696 253 0 0 0 0 1
93 161 256 211 187 51 11 455 1475 1593 1657 2501 2706 2735 2572 2652 34 55 21 702 707 996 954 1329 1387 1386 1114 209 989 920 579 402 24 28 41 0 0 211 0 0 4 3 4
176 69 162 129 287 23 30 943 1080 1038 1077 2141 2455 2747 2044 2487 4 0 77 960 803 704 1024 1043 533 342 548 77 391 770 601 587 407 0 0 0 0 0 0 0 0 2 1
142 57 64 78 65 10 0 1 5 4 367 852 1238 1683 1513 1668 1024 0 0 824 1245 1432 1144 972 797 156 0 0 16 734 487 387 627 408 137 85 22 58 0 3 2 0 0
69 61 44 13 20 62 37 0 9 35 0 0 156 706 1165 1485 1035 35 0 12 635 1109 1034 1179 664 0 0 0 0 22 354 73 263 593 344 287 123 46 36 3 8 1 1
13 42 48 48 92 72 39 44 147 82 0 0 105 147 282 288 229 0 0 0 0 0 203 69 0 0 0 0 0 0 0 0 56 216 236 184 121 68 79 30 0 12 125
77 43 41 65 54 77 23 12 40 44 28 93 103 45 57 117 50 0 0 0 0 0 0 0 2 0 0 0 0 0 0 0 2 84 175 255 271 248 161 78 121 127 126
236 154 86 8 74 158 146 35 59 93 1 23 9 17 21 0 0 0 0 0 0 0 1 0 1 3 6 3 10 12 21 10 1 56 145 174 134 192 228 231 193 172 160
175 76 5 0 17 61 149 275 0 0 0 0 0 0 2 0 0 0 1 2 1 0 2 2 3 4 1 2 5 4 6 6 13 61 12 19 87 130 168 159 140 135 117
95 140 4 0 48 118 98 153 153 18 0 1 0 0 2 0 2 1 2 2 1 0 0 3 8 2 3 11 5 23 2 1 11 34 1 8 0 0 1 17 23 39 16
84 4 20 30 23 15 21 33 2 0 49 23 0 0 0 2 1 1 1 1 0 1 1 3 11 9 24 13 57 44 16 1 4 1 1 1 1 0 1 1 0 1 28
6 9 10 3 0 0 0 0 0 1 22 204 105 0 0 0 0 1 0 4 5 4 5 3 7 4 1 4 10 36 127 4 5 3 3 1 1 1 1 0 0 0 0
20 5 1 0 0 0 0 0 23 72 124 24 227 228 57 28 31 2 1 9 4 3 3 2 3 2 2 1 1 1 0 0 1 0 1 1 1 0 2 1 1 0 1
8 5 1 6 15 32 37 55 48 46 59 266 121 0 0 25 1 1 3 4 12 10 5 3 4 4 1 1 1 1 1 1 1 1 1 1 1 1 1 0 0 1 2
0 12 10 2 15 25 15 36 43 74 174 208 93 0 0 0 0 6 1 6 2 0 12 20 5 2 2 1 1 1 1 1 1 1 1 1 1 1 0 1 1 2 1
1 10 0 10 39 17 33 27 53 27 179 225 154 72 13 0 1 3 1 3 1 0 0 47 9 0 0 0 0 0 0 0 0 1 0 0 4 3 6 11 21 25 19
14 25 18 21 24 21 18 34 74 0 24 75 202 311 16 0 0 1 2 4 0 0 0 0 0 2 1 1 3 4 0 6 8 5 14 14 28 4 7 10 16 8 0
26 10 0 30 40 20 24 25 7 22 112 350 320 220 52 32 15 21 21 20 14 0 0 0 0 0 0 0 0 0 0 0 0 0 20 59 42 63 33 38 8 0 0
0 34 23 81 47 66 111 132 59 99 150 295 409 404 368 297 313 192 74 148 32 0 0 0 0 0 0 0 0 0 0 0 0 0 0 22 10 9 0 11 1 0 0

GFSGL_con_sbcape_105.txt.gz
CAPE
3044 2905 2578 1880 2736 2838 2071 2453 1785 1854 1359 894 713 940 900 956 1392 1319 1170 1066 1048 897 882 519 407 541 502 135 58 70 11 14 0 9 24 78 31 87 74 0 0 0 0
3199 3084 3039 2479 2717 2920 3076 2671 2237 2273 1367 890 865 879 1176 1500 1327 1379 1329 1280 1109 972 871 737 442 344 306 244 108 79 55 44 63 19 10 123 164 22 15 11 0 0 0
3468 3299 3333 3250 2281 3187 2868 2530 2659 1569 1204 1318 1187 1271 1526 1542 1493 1459 1327 1047 1016 970 761 750 526 440 289 260 213 156 113 62 96 85 94 52 9 28 1 0 0 0 0
2991 2140 1438 518 32 1007 1365 1728 2201 1311 1219 1592 1829 1917 1526 1287 1336 1302 1248 1026 886 825 732 666 590 577 548 474 397 272 269 254 246 294 126 36 0 1 0 0 1 0 0
1 1 0 0 0 0 1 0 6 1387 1439 1684 2070 1971 1523 1203 1376 1183 1079 994 808 734 716 690 638 585 612 712 694 590 531 445 376 357 195 55 1 1 0 0 1 0 0
14 2 0 0 0 0 0 3 2 0 731 1917 1991 1710 1238 1122 915 1176 979 863 689 517 486 584 417 728 700 592 639 433 328 259 229 215 98 69 0 0 1 0 0 0 0
22 2 1 0 0 0 0 0 0 0 15 1741 1659 1312 1050 929 526 198 768 592 541 594 542 533 475 614 403 289 204 447 426 256 99 74 41 0 0 0 0 1 1 0 0
141 15 0 0 0 0 0 0 0 0 19 369 1088 1186 881 901 149 76 115 235 286 433 523 511 402 193 111 96 17 0 0 0 0 0 65 66 0 0 0 0 0 0 0
212 276 73 2 0 0 0 0 0 0 0 296 864 673 949 1005 40 56 32 96 79 143 226 225 275 307 226 183 129 29 0 0 0 0 0 3 104 0 0 0 1 1 1
4 14 70 116 0 0 0 0 34 358 463 492 40 83 484 759 0 0 0 87 80 110 148 185 241 170 231 192 0 63 48 31 2 0 0 0 0 0 0 0 0 1 1
26 25 0 7 0 0 0 0 0 0 0 0 0 0 0 0 91 0 0 200 379 351 209 270 175 85 8 0 0 26 54 27 25 0 0 0 0 0 0 0 0 0 0
0 0 0 0 0 0 0 0 0 0 0 0 0 0 0 12 1 0 2 1 1 52 412 319 25 0 0 0 0 0 0 0 54 6 0 0 0 0 1 0 0 0 0
0 0 0 0 4 0 0 0 0 0 0 0 0 0 0 3 0 0 0 0 0 0 0 0 0 0 0 0 0 0 0 0 1 58 69 27 1 0 0 0 0 0 0
0 0 0 0 0 14 0 0 0 0 1 0 0 0 0 0 0 0 0 0 0 0 0 0 0 0 0 0 0 0 0 0 0 0 18 0 7 0 0 0 0 1 1
0 0 0 0 0 0 0 0 2 0 0 0 0 0 0 0 0 0 0 0 0 0 1 0 0 0 0 5 0 0 0 0 1 0 8 39 27 13 11 1 12 8 4
0 0 0 0 0 0 0 0 0 0 0 0 0 0 0 0 0 2 1 1 1 0 0 0 1 2 0 0 0 0 0 0 0 1 2 14 21 24 3 9 28 33 49
0 0 0 0 0 0 0 0 0 0 0 0 0 0 0 0 1 1 1 2 1 0 0 0 1 0 0 0 0 0 1 0 0 1 1 2 9 1 1 1 5 1 26
0 0 0 0 0 0 0 0 0 0 0 1 0 0 0 2 1 1 1 1 0 1 0 1 1 3 2 2 7 10 3 0 1 1 1 0 0 0 1 1 1 1 1
0 0 0 0 0 0 0 0 0 0 0 0 1 0 0 1 1 1 1 1 1 1 2 2 2 1 1 1 1 1 1 13 1 1 1 1 1 0 1 0 1 1 0
0 0 0 0 0 0 0 0 0 3 0 31 51 16 0 0 0 0 0 0 0 1 1 1 2 1 1 1 0 0 0 0 0 0 0 0 1 0 0 0 0 0 1
0 0 2 7 11 24 14 16 17 46 55 20 5 0 0 0 0 0 0 0 0 0 0 0 0 2 1 0 0 0 0 1 0 0 0 1 0 0 1 1 1 1 0
0 0 0 1 1 0 0 9 37 33 101 17 0 0 0 0 0 0 0 0 0 0 0 0 0 1 1 0 0 1 1 1 1 1 1 1 1 1 1 1 0 0 0
0 0 2 0 0 1 1 6 2 2 11 34 13 0 0 0 0 0 0 0 0 0 0 0 0 2 0 0 0 0 0 0 0 0 0 0 0 0 0 0 0 0 0
0 0 3 0 3 0 0 0 1 0 0 20 31 7 0 0 0 0 0 0 0 0 0 0 0 0 0 0 0 0 0 0 0 0 0 0 0 0 0 1 7 6 0
0 0 0 0 0 0 0 0 0 0 0 0 27 38 4 0 0 0 0 0 0 0 0 0 0 0 0 0 0 0 0 0 0 0 0 0 1 1 0 0 0 0 0
0 0 0 0 2 6 11 10 5 0 0 0 23 5 33 23 23 23 11 21 2 0 0 0 0 0 0 0 0 0 0 0 0 0 0 0 9 4 11 6 0 0 0

GFSGL_con_sbcape_108.txt.gz
CAPE
2434 2312 1952 1858 1912 1749 1345 1761 1550 1333 1294 1037 765 558 320 280 342 459 611 769 763 698 594 432 347 145 196 18 6 9 0 0 0 0 2 16 49 138 121 10 0 0 0
2484 2543 2086 1813 2388 1914 1696 1393 1497 1278 1129 904 585 461 384 418 610 837 859 999 861 715 599 522 276 88 221 75 5 27 0 0 0 0 4 33 91 26 29 1 1 0 0
2590 2645 2558 2110 1829 2349 2182 1819 1765 1328 1205 875 552 473 585 738 786 912 1009 1008 810 709 603 478 358 129 155 51 6 9 6 0 0 4 1 1 4 1 1 1 1 0 0
1844 955 1092 8 147 30 21 27 167 587 646 646 552 481 613 911 1132 1093 1037 834 762 706 559 426 358 177 153 83 15 54 26 9 5 41 4 10 0 1 0 0 1 0 1
1 0 2 3 4 0 0 0 0 0 0 0 4 247 813 878 1157 1101 1068 847 741 661 542 415 309 248 233 193 163 74 89 113 68 78 34 5 1 1 0 0 1 0 0
27 6 1 3 20 1 4 1 2 1 0 0 1 0 86 1047 1034 943 796 692 617 520 466 419 362 297 211 192 314 347 245 265 232 213 175 184 32 1 1 0 0 0 0
56 5 1 2 5 0 3 4 3 0 0 0 0 0 9 147 724 525 494 537 493 406 323 271 315 385 319 237 113 104 149 182 295 156 61 4 0 0 0 1 0 0 0
113 15 0 0 0 0 0 0 0 0 0 0 0 0 3 44 371 85 213 469 424 328 309 257 304 358 272 165 109 67 25 0 0 0 0 0 0 0 0 0 0 0 0
19 20 65 0 0 0 0 0 0 0 0 0 1 207 131 263 150 0 0 86 209 207 305 269 280 280 138 97 81 55 31 14 0 0 0 0 0 0 0 0 1 1 1
0 0 0 0 0 0 0 0 0 6 66 83 4 0 0 15 26 0 0 0 13 0 18 86 97 137 127 65 74 55 44 33 0 0 0 0 0 0 0 0 0 0 0
0 0 0 0 0 0 0 0 0 0 0 12 1 0 0 0 1 9 0 1 26 48 53 75 75 45 42 0 0 43 82 42 0 0 0 0 0 0 1 0 0 0 0
0 0 0 0 0 0 0 0 0 0 0 0 0 3 2 1 1 1 1 0 1 1 33 38 0 0 0 0 0 0 0 0 3 2 2 0 0 0 0 0 0 0 0
0 0 0 0 0 0 0 0 0 0 0 0 0 3 3 4 0 1 0 1 0 0 1 1 1 1 0 0 0 0 0 0 0 15 23 11 0 0 0 0 1 0 0
0 0 0 0 0 0 0 0 0 0 0 0 0 0 0 0 0 0 0 0 0 0 0 0 0 0 0 0 0 0 0 0 0 2 4 14 0 0 1 0 1 1 1
0 0 0 0 0 0 0 0 0 0 0 0 0 0 0 0 0 0 0 0 0 0 0 0 0 0 0 0 0 0 0 0 0 0 0 1 3 7 8 0 0 1 0
0 0 0 0 0 0 0 0 0 0 0 0 0 0 0 0 1 1 1 1 1 1 0 0 0 0 0 0 0 0 0 0 0 1 1 1 1 2 18 27 4 1 1
0 0 0 0 0 0 0 0 0 0 0 0 0 0 0 1 1 0 0 1 1 0 0 0 0 0 0 0 0 1 0 0 0 1 1 1 1 2 1 2 50 2 2
0 0 0 0 0 0 0 0 0 0 0 0 0 0 1 1 1 0 0 0 0 1 1 3 1 2 1 1 1 2 24 4 1 1 1 1 1 1 0 0 1 4 3
0 0 0 0 0 0 0 0 0 0 0 0 0 0 1 0 1 0 1 0 1 1 1 1 2 1 1 1 1 1 2 1 3 2 0 1 1 1 1 0 1 1 0
0 0 0 0 0 0 0 0 0 0 0 0 0 0 0 0 0 0 0 0 0 0 0 0 3 1 1 1 1 0 0 0 0 0 0 0 0 0 0 0 0 0 1
0 0 0 0 0 0 0 0 0 13 15 18 0 0 0 0 0 0 0 0 0 0 0 0 0 0 1 1 0 0 0 1 0 0 0 0 0 0 0 0 0 0 1
0 0 0 0 0 0 0 0 0 0 7 0 0 0 0 0 0 0 0 0 0 0 0 0 0 0 0 0 0 0 0 0 0 0 1 1 1 0 1 1 1 1 0
0 0 0 0 0 0 0 0 0 0 0 0 0 0 0 0 0 0 0 0 0 0 0 0 0 0 0 0 0 0 0 0 0 0 0 0 0 0 0 0 0 0 0
0 0 0 0 0 0 0 0 0 0 0 0 0 0 0 0 0 0 0 0 0 0 0 0 0 0 0 0 0 0 0 0 0 0 0 0 0 0 0 0 0 0 0
0 0 0 0 0 0 0 0 0 0 0 0 0 0 0 0 0 0 0 0 0 0 0 0 0 0 0 0 0 0 0 0 0 0 0 0 0 0 0 0 0 0 0
0 0 0 0 0 0 1 3 3 0 0 0 0 0 0 0 1 3 1 0 0 0 0 0 0 0 0 0 0 0 0 0 0 0 0 0 0 2 1 0 0 0 0

GFSGL_con_sbcape_111.txt.gz
CAPE
715 2031 1771 1683 1480 1201 1092 1026 707 807 686 996 1109 905 574 289 31 0 0 1 46 113 205 213 207 92 103 36 13 13 9 0 43 8 1 0 26 66 46 136 41 7 0
598 1364 2013 1751 1718 1454 1301 1138 1435 970 970 1008 1021 821 586 285 92 28 75 260 240 344 396 325 333 111 76 38 1 0 1 0 0 0 0 0 0 10 40 58 3 1 0
275 1620 2100 1914 1591 1638 1633 1397 1066 1222 1153 1008 831 716 593 391 237 301 321 396 487 477 407 311 353 81 98 34 17 4 1 0 0 0 0 0 0 1 1 1 1 1 0
550 1542 1425 251 302 76 48 637 1195 1123 1015 731 553 431 418 271 267 332 493 579 587 488 389 342 287 154 117 30 0 1 1 1 1 17 0 0 0 0 1 8 3 1 1
27 26 45 63 31 13 1 1 3 26 474 571 339 290 345 426 747 642 642 652 537 480 339 293 230 159 100 0 0 0 0 1 1 1 1 1 1 0 15 0 1 0 0
1 2 1 2 27 1 2 7 0 0 0 19 32 20 48 316 174 197 627 695 488 398 372 200 158 204 117 12 0 0 0 0 0 0 30 36 50 0 1 0 0 1 0
5 1 1 0 1 2 0 2 0 0 0 2 26 45 59 19 0 13 25 363 391 329 321 237 123 238 142 57 0 0 0 9 69 2 72 77 26 0 0 0 0 0 0
14 0 0 0 0 0 2 5 2 0 13 3 0 1 0 8 0 0 0 41 273 187 200 132 82 107 104 88 52 13 0 0 0 0 0 7 0 0 0 0 0 0 0
1 1 3 0 0 0 0 0 0 0 0 0 0 0 0 0 0 0 0 13 176 187 112 96 64 83 84 63 37 13 0 0 0 0 0 0 0 0 0 0 1 1 0
0 0 0 0 0 0 0 0 0 1 20 1 0 0 9 0 0 0 0 2 69 71 8 0 5 92 122 35 6 17 27 29 0 0 0 0 0 0 0 0 0 0 0
0 0 0 0 0 0 0 0 0 0 0 0 1 1 1 0 1 0 0 8 39 32 3 1 4 0 0 0 0 8 24 17 1 0 0 0 0 0 0 0 0 0 0
0 0 0 0 0 0 0 0 0 0 0 1 1 2 2 1 1 1 1 8 1 26 34 48 0 1 0 0 0 0 0 0 0 0 0 0 0 0 0 0 0 0 0
0 0 0 0 0 0 0 0 0 0 0 0 2 2 1 4 2 1 1 1 0 1 0 2 1 0 1 1 1 2 0 0 0 0 1 5 0 0 0 0 1 1 0
0 0 0 0 0 0 0 0 0 0 0 0 0 0 0 0 0 0 1 0 0 0 0 0 0 0 0 0 0 0 0 0 0 0 0 4 1 1 1 0 2 1 1
0 0 0 0 0 0 0 0 0 0 0 0 0 0 0 0 0 1 1 0 0 0 0 0 0 0 0 0 1 0 0 0 0 0 0 0 0 1 3 4 3 2 1
0 0 0 0 0 0 0 0 0 0 2 1 2 0 1 1 1 1 1 1 1 0 0 0 0 0 0 0 0 0 0 0 0 1 1 1 0 0 0 1 20 23 12
0 0 0 0 0 0 0 0 0 0 1 2 1 1 0 1 1 0 0 1 1 0 0 0 1 1 3 1 0 0 0 0 0 0 1 1 1 1 2 2 4 4 8
0 0 0 0 0 0 0 0 0 0 0 0 0 1 0 0 0 0 0 1 0 0 4 2 1 2 2 1 1 1 3 4 1 7 3 7 5 1 1 1 1 3 4
0 0 0 0 0 0 0 0 0 0 0 0 0 1 1 1 0 0 0 0 0 0 0 2 1 2 2 1 1 1 1 1 1 19 14 2 1 1 0 1 1 1 1
0 0 0 0 0 0 0 0 0 0 0 0 0 0 1 0 0 0 0 0 0 0 0 0 0 0 1 1 1 1 1 0 1 1 1 1 0 1 1 0 0 0 0
0 0 0 0 0 0 0 0 0 1 0 0 0 0 0 0 0 0 0 0 0 0 0 0 0 1 0 0 0 0 0 1 0 0 0 0 0 0 0 0 0 0 0
0 0 0 0 0 0 0 0 0 0 0 0 0 0 1 0 0 0 0 0 0 0 0 0 0 0 1 1 0 0 0 0 0 0 0 0 0 0 0 0 1 1 1
0 0 0 0 0 0 0 0 0 0 0 0 0 0 0 0 0 0 0 0 0 0 0 0 0 0 0 0 0 0 0 1 1 0 0 0 0 0 0 0 0 0 0
0 0 0 0 0 0 0 0 0 0 0 0 0 0 0 0 0 0 0 0 0 0 0 0 0 0 0 0 0 0 0 0 0 0 0 0 0 0 0 0 0 0 0
0 0 0 0 0 0 0 0 0 0 0 0 0 0 0 0 0 0 0 0 0 0 0 0 0 0 0 0 0 0 0 0 0 0 0 0 0 0 0 0 0 0 0
0 0 0 0 0 0 0 0 0 0 0 0 0 0 0 0 0 0 0 0 0 0 0 0 0 0 0 0 0 0 0 0 0 0 0 0 0 0 4 0 0 0 0